Location: ?????
(32.7281°N, 34.9563°E)
Time: 18:43:53
(UTC+00:00)

Cosmos 2297 Rocket - Pass Details

Date: 29 October 2020
Orbit: 838 x 845 km, 71.0° (Epoch: 30 November)

Event Time Altitude Azimuth Distance (km) Brightness Sun altitude
Rises 15:52:55 0° 341° (NNW) 3,406 5.5 -13.4°
Reaches altitude 10° 15:55:23 10° 343° (NNW) 2,468 4.7 -13.9°
Maximum altitude 16:01:03 78° 69° (ENE) 864 2.1 -15.1°
Drops below altitude 10° 16:06:41 10° 156° (SSE) 2,452 4.4 -16.3°
Sets 16:09:07 0° 158° (SSE) 3,382 5.2 -16.8°
